TimeEST,TemperatureF,Dew PointF,Humidity,Sea Level PressureIn,VisibilityMPH,Wind Direction,Wind SpeedMPH,Gust SpeedMPH,PrecipitationIn,Events,Conditions,WindDirDegrees,DateUTC
12:53 AM,30.0,19.9,66,30.31,10.0,SSW,3.5,-,N/A,,Clear,210,2014-01-01 05:53:00
1:53 AM,30.0,19.0,64,30.31,10.0,SW,3.5,-,N/A,,Clear,220,2014-01-01 06:53:00
2:53 AM,30.0,19.9,66,30.31,10.0,WSW,3.5,-,N/A,,Clear,240,2014-01-01 07:53:00
3:53 AM,30.9,19.9,64,30.32,10.0,WSW,8.1,-,N/A,,Clear,250,2014-01-01 08:53:00
4:53 AM,30.0,19.9,66,30.32,10.0,WSW,5.8,-,N/A,,Clear,240,2014-01-01 09:53:00
5:53 AM,30.0,19.9,66,30.32,10.0,WSW,5.8,-,N/A,,Clear,240,2014-01-01 10:53:00
6:53 AM,28.9,19.9,69,30.32,10.0,SW,4.6,-,N/A,,Clear,230,2014-01-01 11:53:00
7:53 AM,28.0,19.9,72,30.32,10.0,SW,3.5,-,N/A,,Clear,230,2014-01-01 12:53:00
8:53 AM,30.9,21.0,67,30.32,10.0,South,3.5,-,N/A,,Clear,190,2014-01-01 13:53:00
9:53 AM,34.0,21.9,61,30.31,10.0,Calm,Calm,-,N/A,,Clear,0,2014-01-01 14:53:00
10:53 AM,37.0,24.1,59,30.30,10.0,Variable,3.5,-,N/A,,Clear,0,2014-01-01 15:53:00
11:53 AM,41.0,24.1,51,30.27,10.0,Variable,3.5,-,N/A,,Clear,0,2014-01-01 16:53:00
12:53 PM,46.0,23.0,40,30.21,10.0,Variable,3.5,-,N/A,,Clear,0,2014-01-01 17:53:00
1:53 PM,50.0,21.0,32,30.17,10.0,Variable,3.5,-,N/A,,Clear,0,2014-01-01 18:53:00
2:53 PM,51.1,18.0,27,30.15,10.0,Variable,4.6,-,N/A,,Clear,0,2014-01-01 19:53:00
3:53 PM,50.0,17.1,27,30.14,10.0,Variable,3.5,-,N/A,,Clear,0,2014-01-01 20:53:00
4:53 PM,46.9,16.0,29,30.12,10.0,WSW,4.6,-,N/A,,Clear,240,2014-01-01 21:53:00
5:53 PM,43.0,17.1,35,30.12,10.0,SW,3.5,-,N/A,,Clear,230,2014-01-01 22:53:00
6:53 PM,44.1,17.1,34,30.13,10.0,Variable,4.6,-,N/A,,Clear,0,2014-01-01 23:53:00
7:53 PM,43.0,18.0,37,30.12,10.0,South,4.6,-,N/A,,Clear,190,2014-01-02 00:53:00
8:53 PM,39.9,18.0,41,30.10,10.0,SSW,3.5,-,N/A,,Clear,210,2014-01-02 01:53:00
9:53 PM,39.9,17.1,40,30.08,10.0,SSW,3.5,-,N/A,,Clear,200,2014-01-02 02:53:00
10:53 PM,39.9,17.1,40,30.07,10.0,Calm,Calm,-,N/A,,Clear,0,2014-01-02 03:53:00
11:53 PM,39.9,17.1,40,30.04,10.0,SSE,3.5,-,N/A,,Clear,150,2014-01-02 04:53:00